RADUGA-1M 3 (39375 NORAD) Tracking and Keplerian Element Data

This shows tracking and keplerian element data for the satellite.

Feedback or suggestion? Click here.




ElementValue
Catalog39375
NameRADUGA-1M 3
Epoch Orbit3869
Epoch Day159.75382264
Epoch Year2024
RAAN81.4038
Inclination4.0701
Eccentricity0.0003533
Argument of Perigee210.5598
Mean Anonmoly271.0309
Mean Motion1.00271619
Decay Rate1.52E-06
L11 39375U 13062A 24159.75382264 .00000152 00000+0 00000+0 0 9993
L22 39375 4.0701 81.4038 0003533 210.5598 271.0309 1.00271619 38694



Live tracking and technical data element details for RADUGA-1M 3 (NORAD 39375). RADUGA-1M 3 can be tracked NOW for your location showing map with azimuth and elevation plus other details from your city location.







IsCatalogInMostPopularTable: catalog: 39375, numindb: 606
Update: records affected: 1



GetName: 39375 RADUGA-1M 3

Hit Count: updated at: Mon, 17 Jun 2024 23:30:59 GMT